Location: Newark
(50.0306°N, 2.3272°E)
Time: 19:22:28
(UTC+00:00)

Transit 2A Rocket - Pass Details

Date: 10 December 2019
Orbit: 593 x 910 km, 66.7° (Epoch: 27 January)

Event Time Altitude Azimuth Distance (km) Brightness Sun altitude
Rises 16:13:49 0° 202° (SSW) 2,959 9.0 -4.2°
Reaches altitude 10° 16:16:11 10° 198° (SSW) 2,014 8.0 -4.5°
Maximum altitude 16:20:35 55° 121° (ESE) 736 4.8 -5.1°
Drops below altitude 10° 16:24:48 10° 44° (NE) 1,941 6.5 -5.7°
Enters shadow 16:25:40 - 42° (NE) 2,285 6.9 -5.8°
Sets 16:27:03 0° 40° (NE) 2,841 - -6.0°
